Location: Coffee Creek Observatory
(38.8077°N, 94.7179°W)
Time: 00:04:12
(UTC-06:00)

Daily predictions for brighter satellites

Satellite Brightness Start Highest point End
(mag) Time Altitude Azimuth Time Altitude Azimuth Time Altitude Azimuth
SJ 16-02 4.4 03:39:17 13° ENE 03:39:17 13° ENE 03:40:00 10° NE
USA 215 4.3 03:41:17 10° SE 03:45:00 37° ESE 03:45:00 37° ESE
COSMOS 2455 4.3 04:07:45 13° N 04:12:34 34° NE 04:17:58 10° ESE
ADEOS II 4.4 04:10:09 10° N 04:10:56 14° N 04:10:56 14° N
CZ-4B R/B 4.2 04:13:23 10° NNE 04:18:36 43° E 04:21:43 22° SSE
Meteor 2-10 Rocket 4.3 04:30:11 42° NNE 04:30:11 42° NNE 04:33:29 10° N
Lacrosse 5 rocket 4.0 04:34:30 12° SE 04:34:30 12° SE 04:34:50 10° SE
Cosmos 1934 Rocket 4.1 04:28:35 32° S 04:31:44 76° E 04:38:07 10° N
Cosmos 2360 4.1 04:36:35 88° NNW 04:36:35 88° NNW 04:42:17 10° NNE
CZ-4B DEB 4.2 04:33:22 10° NNE 04:38:52 77° ESE 04:40:30 47° S
Okean O Rocket 2.5 04:35:30 10° NNE 04:38:29 42° NNE 04:38:29 42° NNE
Cosmos 2322 Rocket 3.7 04:40:11 10° SSE 04:45:17 36° ESE 04:50:25 10° NE
Cosmos 2123 Rocket 4.0 04:42:54 10° N 04:49:10 82° E 04:55:27 10° S
Cosmos 158 Rocket 3.8 04:48:58 80° NW 04:49:12 84° WSW 04:54:24 10° SSE
Cosmos 1980 Rocket 2.2 04:54:42 59° WNW 04:54:45 59° WNW 05:00:21 10° NNE
Cosmos 2227 4.4 04:52:29 10° NNW 04:58:07 70° ENE 05:03:42 10° SSE
Cosmos 1821 Rocket 4.1 04:58:36 48° WNW 04:58:36 48° WNW 05:04:26 10° N
ATLAS 5 CENTAUR R/B 1.8 04:59:39 50° S 05:00:44 72° ESE 05:05:35 10° NE
Cosmos 489 Rocket 4.3 04:57:37 25° SSW 05:01:31 84° WNW 05:07:48 10° NNE
Cosmos 2242 Rocket 4.4 04:57:32 10° S 05:01:59 54° E 05:06:28 10° NNE
Milstar 3 Cent rocket 4.5 04:58:35 10° S 05:02:07 17° SE 05:06:44 10° ESE
EXPRESS MD2 4.4 05:02:49 36° NNW 05:04:10 50° NE 05:11:04 10° ESE
PAYLOAD B 4.1 04:59:10 10° N 05:04:36 62° WNW 05:06:25 40° SW
Cosmos 1048 Rocket 3.8 05:06:44 10° NNW 05:11:53 80° WSW 05:16:59 10° SSE
Cosmos 372 Rocket 4.0 05:12:36 48° W 05:13:24 53° WNW 05:18:27 10° N
SJ 16-02 2.2 05:16:19 33° NW 05:16:19 33° NW 05:19:30 10° N
Cosmos 1441 Rocket 3.4 05:12:26 10° S 05:16:24 76° E 05:20:24 10° NNE
Meteor 2-17 Rocket 4.3 05:10:28 10° SSW 05:16:30 72° W 05:22:35 10° N
IDEFIX/ARIANE 42P 3.0 05:13:32 10° NNE 05:18:43 62° E 05:23:51 10° S
Cosmos 1733 Rocket 3.3 05:15:30 10° N 05:19:53 71° E 05:24:17 10° SSE
Cosmos 1862 Rocket 3.7 05:17:31 10° S 05:21:51 75° E 05:26:15 10° N
Cosmos 1697 Rocket 4.1 05:24:49 20° NW 05:24:49 20° NW 05:28:28 10° N
Cosmos 1125 Rocket 3.9 05:26:34 34° WSW 05:27:55 40° WNW 05:32:49 10° N
Meteor 1-31 Rocket 3.9 05:24:31 10° N 05:26:53 27° NW 05:26:53 27° NW
Cosmos 1933 3.8 05:28:41 38° WNW 05:28:41 38° WNW 05:32:14 10° N
Hubble Space Telescope 2.6 05:28:54 17° SSW 05:29:56 19° S 05:32:50 10° SE
USA 215 4.2 05:25:59 10° S 05:31:14 25° SW 05:32:24 24° WSW
COSMO-SKYMED 1 2.7 05:27:42 10° SSE 05:32:01 76° ENE 05:36:22 10° N
SL-16 R/B 2.1 05:26:35 10° SSW 05:32:15 87° WNW 05:37:57 10° NNE
Cosmos 1782 4.0 05:35:06 10° SSE 05:38:58 46° E 05:42:51 10° NNE
Okean-O 2.7 05:35:51 10° NNE 05:40:18 80° ESE 05:44:44 10° S
MSX 4.3 05:35:39 10° NNE 05:41:23 64° ESE 05:47:06 10° S
CZ-2C R/B 2.8 05:36:58 10° NNE 05:42:06 72° ESE 05:47:16 10° S
BREEZE-M DEB (TANK) 2.2 05:42:19 34° WSW 05:42:34 35° SW 05:44:36 10° SSE
Cosmos 1605 Rocket 4.3 05:38:23 10° SSW 05:44:07 42° WNW 05:49:53 10° N
SEDSat Delta rocket 4.4 05:45:00 18° WSW 05:47:32 28° SSW 05:51:24 10° SE
CZ-3 R/B 3.3 05:35:27 19° W 05:47:44 41° SSW 05:53:41 10° SE
CZ-2C R/B 3.9 05:43:33 10° S 05:48:06 51° W 05:52:36 10° NNW
Aureole 3 2.6 05:45:32 10° N 05:48:32 87° W 05:51:48 10° S
Cosmos 2100 Rocket 4.0 05:45:13 10° S 05:51:22 89° ESE 05:57:33 10° N
Cosmos 1606 2.7 05:47:54 10° S 05:51:43 82° E 05:55:31 10° N
Meteor 1-26 Rocket 4.4 05:48:48 10° SSW 05:54:34 55° WNW 06:00:17 10° N
SJ-12 4.5 05:53:03 10° NNE 05:57:11 63° E 06:01:15 10° S
COSMOS 2455 3.3 05:52:59 10° NW 05:58:31 39° WSW 06:04:01 10° S
CZ-4B R/B 4.2 05:54:31 10° NNW 05:58:53 25° WNW 06:03:18 10° WSW
Cosmos 1633 2.4 05:55:18 10° N 05:58:58 79° W 06:02:36 10° S
Cosmos 1437 Rocket 3.3 05:57:42 10° N 06:01:44 63° E 06:05:39 10° SSE
Feng Yun 1-1 Rocket 4.3 05:58:18 10° N 06:03:46 58° WNW 06:09:22 10° SSW
Cosmos 494 Rocket 3.9 05:58:55 10° NNW 06:04:01 73° WSW 06:09:06 10° S
Meteor 1-20 Rocket 4.3 06:04:50 10° NNW 06:10:37 68° W 06:16:17 10° S
Cosmos 2263 Rocket 2.2 06:06:06 10° NNW 06:11:44 67° WSW 06:17:21 10° S
Cosmos 1459 Rocket 4.0 06:06:45 10° SSW 06:12:57 67° W 06:19:17 10° N
Cosmos 405 Rocket 4.0 06:10:06 10° WSW 06:13:05 20° WNW 06:16:03 10° NNW
Cosmos 1782 Rocket 4.0 06:10:40 10° N 06:14:59 67° E 06:19:17 10° SSE
Cosmos 2173 Rocket 4.0 06:10:28 10° SSW 06:16:34 62° W 06:22:39 10° N
Cosmos 2016 Rocket 4.1 06:11:13 10° S 06:17:32 87° W 06:23:57 10° N
SKYMED 2 4.4 06:16:20 10° SSW 06:20:08 30° W 06:23:58 10° NW
Cosmos 1484 Rocket 3.2 06:16:37 10° NNE 06:20:37 73° E 06:24:37 10° S
Meteor 1-10 Rocket 4.2 06:15:34 10° S 06:21:07 87° W 06:26:42 10° N
DELTA 2 R/B(2) 3.5 06:20:02 12° W 06:21:39 78° N 06:24:49 10° E
BREEZE-M R/B 4.3 06:17:43 10° WSW 06:23:50 69° NNW 06:30:55 10° NE
Cosmos 1802 Rocket 4.1 06:18:21 10° SSW 06:24:41 65° W 06:30:59 10° N
Iridium 2 3.7 06:20:58 10° S 06:24:47 84° W 06:28:39 10° N
Delta 2 Rocket 4.3 06:21:40 10° SW 06:25:15 35° SSE 06:28:31 10° E
Cosmos 2061 Rocket 4.0 06:19:27 10° SSW 06:25:34 62° W 06:31:43 10° N
ISS -2.5 06:22:56 10° SSW 06:26:02 41° SE 06:29:09 10° ENE
Meteor 1-27 Rocket 4.4 06:21:38 10° S 06:27:06 61° E 06:32:43 10° NNE
Cosmos 2322 Rocket 3.0 06:24:18 10° WSW 06:29:19 31° WNW 06:34:22 10° N
Meteor 2-6 Rocket 4.1 06:26:17 10° SSW 06:31:47 73° W 06:37:12 10° N
